Scottsdale, AZ

9:06 AM MST on February 21, 2018 (GMT -0700)
Scottsdale

Weather History for KSDL - August, 2014

Change the Weather History Date:

Sunday, August 17, 2014

  Actual Average Record
Temperature  
Mean Temperature 96 °F -  
Max Temperature 107 °F 99 °F 108 °F (2013)
Min Temperature 86 °F 79 °F 75 °F (1998)
Cooling Degree Days 32    
Growing Degree Days 46 (Base 50)    
Moisture  
Dew Point 59 °F    
Average Humidity 32    
Maximum Humidity 46    
Minimum Humidity 15    
Precipitation  
Precipitation 0.01 in - - ()
Sea Level Pressure  
Sea Level Pressure 29.81 in    
Wind  
Wind Speed 6 mph (ESE)    
Max Wind Speed 32 mph    
Max Gust Speed 46 mph    
Visibility 10 miles    
Events Rain , Thunderstorm    
Averages and records for this station are not official NWS values.
T = Trace of Precipitation, MM = Missing Value Source: NWS Daily Summary

Daily Weather History Graph

Daily Weather History Graph

Search for Another Location

Airport or City:

Trip Planner

Search our weather history database for the weather conditions in past years. The results will help you decide how hot, cold, wet, or windy it might be!

Date:

Astronomy

Aug. 17, 2014 Rise Set
Actual Time 5:51 AM MST 7:11 PM MST
Civil Twilight 5:25 AM MST 7:37 PM MST
Nautical Twilight 4:53 AM MST 8:08 PM MST
Astronomical Twilight 4:21 AM MST 8:41 PM MST
Moon No Moon Rise 1:17 PM MST (8/17)
Length of Visible Light 14h 12m
Length of Day
13h 20m
Waning Gibbous, 47% of the Moon is Illuminated
Aug 17
Waning Gibbous
Aug 25
New
Sep 2
First Quarter
Sep 8
Full
Sep 15
Last Quarter

Hourly Weather History & Observations

Time (MST) Temp. Heat Index Dew Point Humidity Pressure Visibility Wind Dir Wind Speed Gust Speed Precip Events Conditions
12:53 AM 93.9 °F 94.0 °F 61.0 °F 33% 29.80 in 10.0 mi Calm Calm - N/A   Clear
1:53 AM 93.0 °F 93.0 °F 61.0 °F 34% 29.80 in 10.0 mi SW 3.5 mph - N/A   Clear
2:53 AM 91.9 °F 91.5 °F 60.1 °F 34% 29.82 in 10.0 mi Calm Calm - N/A   Clear
3:53 AM 88.0 °F 88.4 °F 62.1 °F 42% 29.83 in 10.0 mi Calm Calm - N/A   Clear
4:53 AM 87.1 °F 87.8 °F 63.0 °F 44% 29.84 in 10.0 mi ESE 4.6 mph - N/A   Clear
5:53 AM 86.0 °F 86.8 °F 63.0 °F 46% 29.86 in 10.0 mi Calm Calm - N/A   Clear
6:53 AM 87.1 °F 87.8 °F 63.0 °F 44% 29.87 in 10.0 mi SE 5.8 mph - N/A   Clear
7:53 AM 89.1 °F 91.0 °F 64.9 °F 45% 29.88 in 10.0 mi SSE 5.8 mph - N/A   Clear
8:53 AM 91.0 °F 94.3 °F 66.9 °F 45% 29.89 in 10.0 mi SSE 5.8 mph - N/A   Clear
9:53 AM 91.9 °F 94.1 °F 64.9 °F 41% 29.88 in 10.0 mi SSE 6.9 mph - N/A   Clear
10:53 AM 95.0 °F 97.0 °F 64.0 °F 36% 29.87 in 10.0 mi SSW 6.9 mph - N/A   Clear
11:53 AM 98.1 °F 99.6 °F 63.0 °F 31% 29.85 in 10.0 mi Variable 4.6 mph - N/A   Clear
12:53 PM 99.0 °F 99.5 °F 61.0 °F 28% 29.81 in 10.0 mi Calm Calm - N/A   Clear
1:53 PM 102.0 °F 103.3 °F 61.0 °F 26% 29.78 in 10.0 mi WNW 6.9 mph - N/A   Clear
3:53 PM 105.1 °F 105.0 °F 57.9 °F 21% 29.71 in 10.0 mi West 6.9 mph - N/A   Clear
4:53 PM 107.1 °F 106.0 °F 55.0 °F 18% 29.68 in 10.0 mi West 11.5 mph - N/A   Clear
5:53 PM 105.1 °F 104.4 °F 55.9 °F 20% 29.69 in 10.0 mi SW 6.9 mph - N/A   Clear
6:10 PM 104.0 °F 102.3 °F 53.6 °F 19% 29.82 in 2.0 mi ENE 31.1 mph 40.3 mph N/A   Haze
6:13 PM 102.2 °F - 46.4 °F 15% 29.82 in 10.0 mi ENE 26.5 mph 40.3 mph N/A   Squalls
6:28 PM 98.6 °F - 46.4 °F 17% 29.82 in 10.0 mi ENE 32.2 mph 46.0 mph N/A   Scattered Clouds
6:41 PM 96.8 °F - 50.0 °F 20% 29.81 in 10.0 mi ENE 19.6 mph 28.8 mph N/A Thunderstorm Partly Cloudy
7:53 PM 91.0 °F 89.7 °F 57.0 °F 32% 29.80 in 10.0 mi ENE 18.4 mph 28.8 mph 0.00 in Rain , Thunderstorm Light Thunderstorms and Rain
8:31 PM 89.6 °F 89.5 °F 60.8 °F 38% 29.85 in 10.0 mi ESE 6.9 mph - 0.01 in Rain Light Rain
8:53 PM 90.0 °F 90.0 °F 61.0 °F 38% 29.78 in 10.0 mi East 6.9 mph - 0.01 in Rain Light Rain
9:53 PM 91.0 °F 90.0 °F 57.9 °F 33% 29.76 in 10.0 mi Variable 4.6 mph - 0.00 in   Partly Cloudy
10:53 PM 91.0 °F 90.2 °F 59.0 °F 34% 29.80 in 10.0 mi Calm Calm - N/A   Clear
11:50 PM 89.6 °F 88.9 °F 59.0 °F 36% 29.89 in 10.0 mi ENE 4.6 mph - N/A Thunderstorm Clear
11:53 PM 89.1 °F 88.2 °F 59.0 °F 36% 29.80 in 10.0 mi East 4.6 mph - N/A Thunderstorm Clear